Weather Roundup
Issued by NWS

Home | Current Version | Previous Version | Text Only | Print | Product List | Glossary On
Versions: 1 2 3 4 5 6 7 8 9 10 11 12 13 14 15 16 17 18 19 20 21 22 23 24 25 26 27 28 29 30 31 32 33 34 35 36 37 38 39 40 41 42 43 44 45 46 47 48 49 50
000
NZUS93 KARX 251859
HRRWXR

CURRENT HOURLY OBSERVATIONS ACROSS
MUCH OF THE UPPER MISSISSIPPI VALLEY
NATIONAL WEATHER SERVICE LA CROSSE WI
200 PM CDT WED MAY 25 2016


...SOUTHEAST MINNESOTA...


CITY           SKY/WX    TMP DP  RH WIND       PRES   REMARKS
ROCHESTER      LGT RAIN  65  65 100 SW7       29.87S VSB 1
ROCHESTER/MAYO CLOUDY    66  66 100 SW17G24   29.87R
WINONA         RAIN      70  66  88 CALM      29.87F
AUSTIN         CLOUDY    70  63  78 S12G18    29.85F
ALBERT LEA     CLOUDY    66  66 100 S7        29.84F
DODGE CENTER   RAIN      63  61  94 S12G18    29.86S
PRESTON        CLOUDY    66  63  90 SE8       29.87F
OWATONNA       CLOUDY    73  66  78 E18       29.84R
FARIBAULT      PTSUNNY   73  66  78 E9        29.84F
$$

...ELSEWHERE IN MINNESOTA...


CITY           SKY/WX    TMP DP  RH WIND       PRES   REMARKS
MINNEAPOLIS    LGT RAIN  72  66  81 E8        29.84S
INTNL FALLS    CLOUDY    64  54  69 E14       29.94F
DULUTH         CLOUDY    52  49  89 E14G23    29.96F FOG
RED WING       PTSUNNY   70  64  83 E3        29.85S
REDWOOD FALLS  CLOUDY    77  62  59 S13       29.80F
MANKATO        CLOUDY    75  63  64 SE9       29.83F
WORTHINGTON    CLOUDY    74  62  66 S20       29.84F
FAIRMONT       CLOUDY    75  52  43 S10G18    29.83S
$$

...SOUTHWEST WISCONSIN...


CITY           SKY/WX    TMP DP  RH WIND       PRES   REMARKS
LA CROSSE      TSTM      71  67  87 SW8       29.86F FOG
PRAIRIE DU CHI PTSUNNY   78  59  51 SE6       29.87S
BOSCOBEL       CLOUDY    84  58  40 S10G20    29.86F
LONE ROCK      NOT AVBL
PLATTEVILLE    CLOUDY    83  60  46 S17       29.90F
FORT MC COY    LGT RAIN  78  63  59 SE14      29.89R
MAUSTON-NEW LI CLOUDY    81  64  55 SE10G17   29.88S
VIROQUA        CLOUDY    75  62  63 SE7       29.90R
WIS DELLS      CLOUDY    83  60  45 SE12G18   29.90F
$$

...ELSEWHERE IN WISCONSIN...


CITY           SKY/WX    TMP DP  RH WIND       PRES   REMARKS
MILWAUKEE      PTSUNNY   60  52  74 NE10      29.98F
MADISON        PTSUNNY   83  63  50 S17       29.90F
GREEN BAY      MOSUNNY   68  59  73 NE13      30.00F
EAU CLAIRE     NOT AVBL
BLACK RVR FLS  MOCLDY    82  58  44 SE9G20    29.86F
MEDFORD        MOSUNNY   74  61  62 E12G17    29.93F
WAUSAU         MOSUNNY   76  59  55 E15G24    29.93F
WIS RAPIDS     MOSUNNY   79  59  50 E15       29.92F
MARSHFIELD     SUNNY     77  61  57 E16       29.92F
RICE LAKE      CLOUDY    75  59  56 SE16G24   29.90F
$$

...NORTHEAST IOWA...


CITY           SKY/WX    TMP DP  RH WIND       PRES   REMARKS
WATERLOO       CLOUDY    74  65  73 S14G20    29.85F
DUBUQUE        PTSUNNY   82  62  50 S22G30    29.88F
DECORAH        PTSUNNY   66  66 100 SE7       29.87F
MASON CITY     CLOUDY    72  65  78 S10G20    29.86S
CHARLES CITY   CLOUDY    68  68 100 S16       29.87S
OELWEIN        CLOUDY    73  66  78 S21       29.89S
$$

...ELSEWHERE IN IOWA...


CITY           SKY/WX    TMP DP  RH WIND       PRES   REMARKS
DES MOINES     CLOUDY    75  62  64 S12       29.85F
IOWA CITY      CLOUDY    80  65  59 S13       29.89F
FORT DODGE     PTSUNNY   75  64  69 SW13      29.85F
MARSHALLTOWN   PTSUNNY   75  66  73 S14       29.86F
CEDAR RAPIDS   CLOUDY    79  66  64 S13       29.86F
$$

...NORTHERN ILLINOIS...


CITY           SKY/WX    TMP DP  RH WIND       PRES   REMARKS
CHICAGO-OHARE  PTSUNNY   84  62  47 SE9       29.94F
CHICAGO-MIDWAY PTSUNNY   86  59  39 S13G21    29.94F
MOLINE         CLOUDY    84  66  54 S13G20    29.90F
ROCKFORD       CLOUDY    88  60  38 S17       29.92F
PEORIA         MOSUNNY   85  65  51 S14G23    29.91F
$$

NOTE: "FAIR" INDICATES FEW OR NO CLOUDS BELOW 12,000 FEET WITH NO
SIGNIFICANT WEATHER AND/OR OBSTRUCTIONS TO VISIBILITY. WIND
SPEEDS ARE IN MILES-PER-HOUR.




USA.gov is the U.S. government's official web portal to all federal, state and local government web resources and services.